Total_Precipitation_Accumulation
0.97 0.97 0.96 0.90 0.84 0.83 0.88 0.86 0.78 0.69 0.60 0.53 0.47 0.46 0.45 0.41 0.41 0.45 0.46 0.49 0.57 0.61 0.58 0.59 0.63 0.68 0.77 0.84 0.93 1.05 1.19 1.30 1.38 1.21 1.00 0.95 0.98 1.02 1.06 0.95 0.88 0.83 0.77
0.80 0.78 0.79 0.71 0.66 0.65 0.65 0.65 0.61 0.57 0.56 0.54 0.50 0.48 0.43 0.38 0.36 0.37 0.38 0.37 0.40 0.44 0.46 0.48 0.49 0.50 0.59 0.65 0.74 0.84 0.94 1.06 1.21 1.21 1.04 0.96 0.97 1.03 1.09 1.06 0.92 0.78 0.72
0.54 0.55 0.61 0.61 0.58 0.60 0.56 0.55 0.58 0.55 0.51 0.48 0.47 0.45 0.41 0.38 0.39 0.38 0.35 0.34 0.34 0.35 0.38 0.41 0.44 0.47 0.54 0.60 0.68 0.73 0.81 0.88 1.04 1.12 1.04 0.98 0.99 1.05 1.14 1.08 0.91 0.86 0.65
0.42 0.41 0.47 0.51 0.52 0.53 0.54 0.51 0.48 0.46 0.45 0.39 0.35 0.35 0.36 0.35 0.32 0.30 0.29 0.30 0.30 0.30 0.30 0.32 0.35 0.42 0.49 0.57 0.62 0.69 0.79 0.88 0.97 1.07 1.08 1.06 1.07 1.08 1.13 1.16 0.99 0.85 0.68
0.43 0.45 0.47 0.49 0.48 0.50 0.51 0.49 0.42 0.38 0.35 0.32 0.29 0.29 0.30 0.28 0.24 0.22 0.23 0.24 0.26 0.28 0.30 0.30 0.29 0.34 0.43 0.48 0.55 0.67 0.82 0.93 0.96 1.03 1.07 1.08 1.10 1.16 1.13 1.06 0.98 0.83 0.68
0.53 0.54 0.50 0.49 0.50 0.52 0.50 0.45 0.40 0.36 0.33 0.30 0.30 0.29 0.25 0.20 0.21 0.20 0.19 0.24 0.29 0.33 0.38 0.36 0.29 0.27 0.30 0.36 0.45 0.56 0.68 0.84 0.96 1.04 1.07 1.04 1.02 1.06 1.06 1.04 1.03 1.00 0.86
0.56 0.52 0.49 0.45 0.44 0.43 0.40 0.40 0.37 0.37 0.34 0.31 0.31 0.30 0.26 0.19 0.15 0.15 0.17 0.22 0.32 0.39 0.41 0.39 0.32 0.27 0.32 0.39 0.41 0.44 0.53 0.67 0.88 1.04 1.11 1.00 1.02 1.09 1.15 1.16 1.06 1.06 0.99
0.51 0.47 0.41 0.38 0.40 0.38 0.38 0.39 0.36 0.37 0.39 0.35 0.32 0.31 0.30 0.17 0.14 0.15 0.17 0.26 0.36 0.36 0.33 0.34 0.40 0.44 0.37 0.36 0.40 0.52 0.67 0.76 0.79 0.82 0.97 0.98 0.99 0.98 0.95 0.99 0.98 1.03 0.94
0.45 0.41 0.36 0.32 0.31 0.32 0.34 0.37 0.38 0.40 0.44 0.37 0.32 0.34 0.32 0.23 0.17 0.17 0.18 0.27 0.35 0.33 0.30 0.29 0.33 0.41 0.38 0.42 0.55 0.76 0.96 1.10 0.96 0.90 0.95 1.06 1.08 0.96 0.79 0.81 1.02 1.12 0.99
0.37 0.33 0.30 0.30 0.31 0.33 0.36 0.38 0.34 0.38 0.44 0.35 0.28 0.30 0.27 0.23 0.17 0.19 0.21 0.26 0.36 0.37 0.37 0.36 0.38 0.41 0.42 0.53 0.67 0.92 1.14 1.26 1.09 1.01 1.11 1.23 1.16 1.07 0.99 1.00 1.15 1.13 1.00
0.23 0.23 0.26 0.28 0.29 0.28 0.34 0.38 0.36 0.36 0.40 0.37 0.32 0.31 0.25 0.18 0.16 0.19 0.20 0.22 0.31 0.38 0.41 0.46 0.48 0.49 0.48 0.59 0.77 0.95 1.15 1.21 1.16 1.12 1.10 1.10 1.08 1.08 1.00 1.00 1.00 0.96 0.94
0.19 0.22 0.25 0.25 0.21 0.20 0.31 0.35 0.35 0.40 0.38 0.37 0.35 0.33 0.27 0.21 0.14 0.13 0.12 0.14 0.23 0.40 0.51 0.54 0.54 0.53 0.55 0.71 0.85 1.06 1.26 1.37 1.25 1.09 0.95 0.88 0.86 0.88 0.86 0.75 0.70 0.67 0.70
0.22 0.27 0.25 0.22 0.22 0.21 0.26 0.29 0.30 0.36 0.36 0.33 0.33 0.31 0.27 0.23 0.15 0.09 0.08 0.10 0.16 0.29 0.45 0.59 0.59 0.55 0.71 1.00 1.17 1.29 1.45 1.50 1.29 1.01 0.87 0.78 0.70 0.66 0.64 0.64 0.59 0.54 0.51
0.29 0.28 0.26 0.27 0.27 0.22 0.22 0.20 0.21 0.24 0.26 0.30 0.30 0.30 0.28 0.25 0.17 0.12 0.13 0.15 0.18 0.24 0.37 0.55 0.69 0.73 0.89 1.18 1.39 1.49 1.54 1.44 1.18 0.95 0.81 0.72 0.63 0.58 0.60 0.56 0.56 0.52 0.54
0.27 0.22 0.21 0.22 0.22 0.23 0.18 0.13 0.11 0.11 0.10 0.16 0.22 0.24 0.25 0.21 0.14 0.14 0.16 0.18 0.21 0.27 0.34 0.51 0.70 0.80 1.00 1.22 1.34 1.35 1.30 1.20 1.10 0.92 0.76 0.68 0.65 0.61 0.59 0.53 0.51 0.46 0.50
0.23 0.20 0.17 0.15 0.15 0.13 0.15 0.13 0.07 0.06 0.06 0.08 0.12 0.14 0.15 0.14 0.13 0.12 0.14 0.18 0.24 0.31 0.38 0.59 0.77 0.86 1.01 1.13 1.20 1.16 1.07 0.98 0.89 0.81 0.73 0.66 0.62 0.59 0.57 0.50 0.45 0.43 0.48
0.16 0.15 0.13 0.10 0.10 0.12 0.13 0.18 0.19 0.13 0.08 0.09 0.10 0.11 0.11 0.11 0.11 0.12 0.14 0.19 0.22 0.28 0.41 0.62 0.79 0.90 1.00 1.04 1.04 0.98 0.92 0.86 0.76 0.69 0.65 0.60 0.54 0.50 0.48 0.43 0.39 0.40 0.40
0.08 0.06 0.06 0.08 0.08 0.09 0.09 0.10 0.16 0.24 0.25 0.20 0.12 0.09 0.09 0.10 0.12 0.13 0.15 0.19 0.27 0.31 0.47 0.63 0.74 0.79 0.86 0.90 0.87 0.85 0.81 0.73 0.65 0.61 0.60 0.57 0.48 0.42 0.39 0.36 0.34 0.31 0.30
0.06 0.06 0.04 0.04 0.04 0.04 0.04 0.05 0.09 0.14 0.19 0.21 0.18 0.13 0.10 0.12 0.15 0.17 0.19 0.24 0.33 0.40 0.48 0.57 0.65 0.68 0.71 0.73 0.71 0.67 0.66 0.62 0.55 0.51 0.51 0.51 0.48 0.41 0.34 0.27 0.23 0.18 0.19
0.03 0.03 0.02 0.02 0.02 0.03 0.03 0.05 0.07 0.09 0.13 0.16 0.19 0.16 0.16 0.23 0.29 0.28 0.23 0.23 0.28 0.36 0.44 0.52 0.54 0.53 0.53 0.54 0.52 0.47 0.47 0.47 0.45 0.44 0.43 0.42 0.40 0.34 0.27 0.22 0.18 0.16 0.16
0.02 0.01 0.01 0.01 0.02 0.02 0.03 0.04 0.06 0.07 0.11 0.15 0.14 0.12 0.19 0.26 0.35 0.33 0.30 0.30 0.33 0.36 0.38 0.40 0.43 0.43 0.39 0.37 0.37 0.36 0.37 0.38 0.37 0.38 0.36 0.35 0.32 0.27 0.21 0.16 0.13 0.11 0.09
0.01 0.01 0.01 0.01 0.01 0.01 0.02 0.03 0.04 0.05 0.08 0.11 0.11 0.11 0.19 0.25 0.32 0.34 0.34 0.36 0.37 0.38 0.36 0.34 0.33 0.35 0.36 0.34 0.33 0.32 0.32 0.32 0.33 0.35 0.32 0.29 0.26 0.21 0.15 0.11 0.08 0.06 0.06
0.01 0.01 0.01 0.01 0.00 0.01 0.01 0.02 0.03 0.03 0.05 0.07 0.08 0.10 0.15 0.24 0.31 0.37 0.40 0.40 0.39 0.37 0.32 0.29 0.31 0.33 0.32 0.30 0.28 0.27 0.26 0.26 0.29 0.31 0.31 0.27 0.22 0.17 0.12 0.09 0.07 0.05 0.04
0.00 0.00 0.00 0.00 0.00 0.00 0.01 0.01 0.02 0.02 0.03 0.04 0.06 0.09 0.13 0.20 0.27 0.34 0.41 0.43 0.45 0.43 0.39 0.34 0.32 0.32 0.30 0.27 0.26 0.24 0.21 0.21 0.23 0.27 0.28 0.23 0.17 0.13 0.10 0.08 0.06 0.05 0.04
0.00 0.00 0.00 0.00 0.00 0.00 0.01 0.01 0.01 0.01 0.02 0.02 0.04 0.06 0.09 0.13 0.19 0.26 0.32 0.38 0.42 0.46 0.46 0.44 0.40 0.34 0.28 0.23 0.19 0.17 0.19 0.21 0.19 0.19 0.24 0.21 0.13 0.09 0.08 0.07 0.05 0.05 0.04
0.00 0.00 0.00 0.00 0.00 0.00 0.00 0.01 0.01 0.01 0.01 0.01 0.02 0.04 0.06 0.10 0.14 0.18 0.21 0.24 0.28 0.35 0.40 0.45 0.44 0.35 0.26 0.21 0.18 0.18 0.16 0.12 0.08 0.09 0.18 0.19 0.13 0.10 0.08 0.07 0.05 0.05 0.05